Wind_Speed
5 4 3 5 7 8 7 6 7 6 7 7 6 4 3 3 2 3 3 5 2 3 3 3 4 8 11 10 16 23 17 13 19 21 23 23 22 24 24 25 26 26 26 24 22 23 23 23 24 24 23 23 23 23 24 25 26 25 25 27 26 25 26 27 28 29 30 30 30 30 30 30 30 30 31 31 31 32 33 33 32 31 30 29 29 29
4 5 7 7 7 7 7 7 8 7 7 6 6 5 1 1 2 2 2 4 4 1 2 2 4 9 11 10 16 21 14 12 19 20 22 24 25 26 26 28 29 29 29 28 27 26 26 26 25 25 24 24 24 22 23 24 23 23 25 25 24 23 25 26 26 28 29 29 29 29 29 29 29 29 29 29 29 30 31 32 32 32 31 31 30 31
3 4 7 6 7 8 7 5 8 8 7 6 4 5 2 2 2 3 3 5 5 1 3 4 5 9 11 10 15 16 12 16 20 18 21 23 24 25 25 26 26 27 28 27 26 23 23 23 23 23 23 22 22 21 22 23 23 24 25 24 23 23 24 23 23 25 26 26 27 28 28 28 29 28 28 28 28 28 29 29 30 31 32 33 34 33
4 5 6 9 10 10 6 4 8 8 5 4 4 5 3 2 1 1 2 5 4 2 1 3 4 8 7 7 9 9 10 14 15 15 17 18 20 21 19 20 20 19 18 16 14 12 12 13 14 16 18 20 21 22 22 22 22 23 24 23 23 23 22 22 22 23 23 25 26 27 28 28 29 30 29 29 29 29 29 29 30 30 31 34 34 34
4 4 4 10 6 8 7 3 6 7 3 1 3 6 4 3 4 2 1 2 3 3 3 3 4 6 5 6 7 4 4 9 9 9 10 9 11 14 15 15 14 13 11 9 6 5 5 6 8 10 12 15 17 19 20 20 21 21 22 23 23 24 23 22 22 22 22 23 24 25 27 29 30 31 31 32 31 30 30 29 28 28 30 31 33 33
3 1 7 9 4 6 8 3 4 6 3 1 3 6 6 7 6 2 2 3 4 4 4 5 4 5 5 5 7 4 7 10 9 9 10 10 8 8 11 11 10 10 10 7 3 2 1 3 5 8 9 11 12 14 16 17 18 19 19 20 22 23 23 22 22 22 22 23 23 24 26 27 29 30 31 31 30 29 28 27 27 27 28 29 30 32
1 2 5 7 6 6 7 4 5 5 6 1 4 5 7 7 8 6 4 4 2 1 3 4 3 4 7 6 7 6 8 10 9 10 12 14 13 10 9 6 3 1 1 3 7 8 6 3 2 4 6 7 8 9 11 12 14 14 14 15 17 18 19 20 21 21 21 21 22 22 23 25 27 28 28 27 27 27 27 28 27 27 28 28 29 30
2 4 4 5 7 6 6 4 5 6 8 3 3 6 8 8 8 6 6 4 2 2 4 4 4 2 5 6 7 6 7 9 9 8 11 14 15 16 16 14 13 13 12 12 12 12 10 8 5 2 2 3 5 6 7 8 8 9 9 10 12 13 14 15 17 18 18 19 20 20 22 23 25 26 26 25 27 27 28 29 29 29 29 29 29 29
2 5 5 5 5 4 4 4 5 9 6 3 3 7 7 7 7 5 6 4 1 1 3 5 3 1 5 7 6 6 5 7 7 6 8 12 14 16 18 18 18 17 15 15 14 12 11 11 9 7 5 3 1 2 3 4 5 5 6 6 7 8 9 10 12 13 15 16 17 19 20 22 23 24 24 25 27 27 29 30 30 30 31 31 30 30
2 2 5 6 5 4 3 1 2 5 3 4 6 7 7 6 6 5 5 4 3 3 4 5 3 1 5 7 5 3 2 5 5 5 7 9 13 16 18 18 17 17 16 15 14 14 14 14 14 13 11 10 8 5 4 2 1 1 2 3 4 5 6 8 9 11 13 14 16 18 20 22 22 22 23 25 26 27 28 29 30 30 30 30 31 31
1 1 1 3 3 5 5 4 4 3 6 10 7 7 7 6 5 4 3 4 4 2 5 5 3 0 2 6 4 1 2 5 4 1 6 9 14 17 18 18 19 19 19 18 17 17 17 17 17 17 16 15 13 12 11 10 9 8 7 6 5 5 5 5 6 8 10 12 14 17 19 20 21 22 23 24 26 26 27 28 28 29 29 29 29 29
4 3 1 1 3 6 8 6 6 5 7 7 5 5 5 4 4 4 5 4 2 4 6 4 3 1 2 5 3 3 5 5 6 3 4 9 13 16 17 19 22 24 24 23 23 22 21 20 19 17 16 15 15 14 13 12 12 11 10 10 9 8 8 8 8 8 9 10 13 15 17 18 19 21 22 23 24 24 25 26 26 27 27 27 27 27
2 1 2 1 2 5 6 6 5 4 4 5 5 6 5 2 3 3 3 1 2 5 4 3 2 2 5 7 6 8 8 6 8 6 2 7 10 12 14 19 23 26 27 27 27 26 25 24 22 20 18 17 15 13 12 11 10 10 10 9 10 10 10 10 10 10 10 11 13 14 16 17 18 19 20 21 22 22 23 24 24 25 25 25 25 26
0 4 2 2 2 5 5 6 4 1 0 4 5 5 4 3 2 2 4 2 3 4 3 3 2 2 4 6 8 11 9 7 9 7 5 5 5 8 11 17 22 25 27 27 27 27 26 26 25 24 22 21 19 17 15 13 12 11 10 10 10 11 11 11 12 11 11 11 12 14 15 17 18 18 19 20 20 21 22 23 23 23 23 24 24 24
4 3 3 3 2 5 4 4 6 5 4 3 3 5 5 5 5 4 4 3 3 3 3 4 2 3 2 2 6 8 8 8 8 7 7 4 1 5 10 17 20 23 25 26 26 26 25 24 23 22 22 21 21 19 18 17 15 14 14 14 15 15 16 16 15 15 15 15 14 14 15 16 17 18 19 20 20 20 21 21 22 22 23 23 23 23
4 3 4 2 0 5 4 2 4 7 3 1 2 5 2 4 5 3 3 5 3 0 2 2 3 4 3 4 5 4 7 7 3 4 7 5 5 10 14 17 20 22 24 24 24 24 23 22 21 20 19 18 18 18 17 16 15 15 15 15 16 16 16 16 16 16 16 16 16 15 15 15 16 16 17 18 19 20 21 21 22 22 23 23 23 23
3 2 4 4 2 3 2 1 2 3 3 2 2 3 4 4 7 6 2 1 3 1 3 1 3 5 3 4 5 4 1 3 4 3 7 10 11 14 16 18 20 22 23 22 22 21 20 20 19 19 18 16 15 15 15 14 13 12 11 11 12 13 13 13 13 14 14 14 15 15 15 16 16 16 16 17 18 19 21 21 22 23 23 24 24 23
5 2 4 2 3 2 2 5 6 5 3 4 3 5 4 3 5 5 2 3 4 2 4 1 3 4 1 2 5 5 4 2 2 6 10 14 15 16 17 19 21 22 21 20 20 19 18 18 18 18 17 17 16 15 13 13 12 10 8 8 10 11 12 12 13 13 14 15 16 16 17 17 18 19 19 19 19 19 21 21 22 23 24 25 25 25
5 3 3 2 2 2 3 5 4 5 5 4 5 4 4 3 2 2 2 2 1 2 4 4 3 3 3 4 4 1 8 7 4 6 9 12 16 16 17 19 20 19 18 18 18 18 17 16 16 15 15 15 15 14 13 12 11 9 7 7 9 11 12 14 14 15 16 17 18 19 20 21 21 22 22 22 22 21 21 21 22 23 25 25 26 27
4 4 2 2 1 1 3 1 4 1 4 5 4 3 2 3 4 2 2 4 3 2 2 4 3 3 6 6 6 7 9 8 8 8 8 12 17 18 19 19 18 17 17 17 16 16 16 15 14 13 13 12 12 12 13 12 11 9 8 8 9 11 12 14 16 17 18 19 20 21 22 23 24 24 24 23 23 22 22 22 23 24 25 26 26 27
2 3 3 1 3 1 1 3 6 7 3 3 4 3 1 2 3 2 1 2 4 4 3 2 3 5 6 4 6 7 7 8 10 9 9 14 18 18 18 17 15 16 16 15 15 14 14 14 13 12 11 10 9 10 11 11 11 11 10 11 12 13 14 15 17 18 19 20 20 21 22 23 24 24 24 23 23 23 22 22 23 25 26 27 27 27
2 3 4 2 0 3 3 3 3 5 5 5 5 6 6 4 4 3 2 1 2 3 4 3 3 7 6 3 5 6 6 8 11 13 13 15 17 17 16 15 14 14 13 12 12 12 12 12 12 12 11 10 10 9 10 11 11 11 12 12 13 14 15 16 17 18 19 19 19 20 20 21 22 23 23 23 23 23 23 23 24 25 27 29 28 29
3 4 4 2 3 5 3 3 1 2 2 3 3 4 6 4 5 6 5 3 2 1 2 3 1 7 6 3 4 6 7 10 12 16 17 15 16 15 13 12 12 11 10 9 10 10 11 11 11 12 12 12 12 12 11 10 10 10 11 12 13 14 14 15 16 18 19 19 19 20 20 20 20 21 22 23 23 24 24 24 25 25 27 28 28 29
3 4 3 0 3 3 4 4 2 2 2 2 2 2 5 3 3 5 5 4 4 3 3 3 2 6 6 2 2 6 9 12 11 13 15 14 14 13 9 9 9 8 8 8 9 9 9 10 11 12 12 13 13 12 11 10 10 10 11 11 12 13 14 15 16 17 18 19 19 20 19 20 20 21 21 22 23 23 24 25 25 26 27 28 28 29
5 2 4 3 2 3 4 4 3 2 1 3 3 2 4 4 6 4 2 4 2 5 7 5 4 6 6 4 4 4 9 10 8 10 11 11 13 10 5 6 6 5 6 7 8 8 8 10 11 12 12 12 11 10 10 9 10 11 12 12 13 13 14 15 16 17 19 19 20 20 19 20 20 21 22 23 24 24 25 26 26 27 28 28 29 30
7 2 5 6 5 6 5 4 4 4 3 2 2 4 5 6 8 5 3 4 3 5 6 6 5 5 5 4 4 5 7 7 7 7 7 9 11 5 2 3 4 4 5 6 6 7 9 11 12 13 12 11 10 9 8 9 10 11 12 13 13 14 15 16 18 19 20 21 22 22 22 22 22 23 24 25 26 27 27 28 29 29 30 31 32 32
4 1 6 8 10 11 8 5 4 7 6 4 4 7 7 7 9 6 5 4 5 3 4 7 6 4 4 3 3 6 6 6 7 8 8 9 7 2 1 1 2 3 4 5 7 9 12 13 12 11 10 10 10 10 11 12 12 12 12 13 14 16 17 18 20 21 22 24 25 26 26 26 26 26 27 27 28 29 29 30 31 32 32 33 34 35
4 3 7 7 10 8 5 5 5 7 9 10 9 10 9 9 10 9 8 10 6 5 6 9 7 6 7 7 8 9 7 6 9 11 11 9 6 5 3 2 2 2 4 6 10 13 15 14 14 13 12 12 12 13 13 13 13 14 15 15 17 19 20 21 22 23 25 26 27 28 29 29 29 29 29 30 30 31 31 32 33 33 33 34 34 35
4 5 6 5 8 6 3 4 6 7 8 9 11 13 12 12 12 13 15 14 9 7 12 7 11 11 9 8 11 11 11 12 13 12 9 6 6 6 2 2 4 5 8 10 13 15 15 15 15 14 14 14 13 13 12 13 14 15 16 18 19 21 22 24 25 26 27 28 28 29 30 30 31 31 31 31 31 32 33 33 34 35 35 34 34 35
3 3 3 6 7 7 2 3 5 7 6 5 9 13 13 14 16 17 19 17 12 12 10 6 10 13 8 9 12 11 13 16 13 9 6 3 3 2 4 7 9 10 11 10 10 11 11 10 10 10 10 11 11 12 13 13 15 16 18 20 21 23 24 26 27 28 29 30 31 31 32 33 33 34 34 34 33 33 34 34 34 35 35 35 35 36
3 3 2 5 4 5 1 2 2 3 5 5 7 8 10 13 15 16 17 13 9 11 8 4 5 10 5 11 12 9 12 13 9 8 8 6 4 4 5 6 7 8 8 6 6 6 6 7 6 6 7 9 10 12 13 14 16 17 19 21 22 24 26 27 28 29 30 31 32 33 34 35 37 37 38 38 38 38 38 38 37 37 36 36 36 36
4 2 2 5 4 5 1 5 4 3 3 2 5 8 12 13 12 13 12 8 8 11 11 7 9 10 6 12 11 8 10 11 12 12 8 5 6 6 6 7 8 8 7 5 4 4 4 4 4 5 6 8 10 13 14 16 17 18 19 21 22 24 25 26 27 28 30 31 32 33 35 36 37 39 40 41 42 42 42 42 42 42 41 40 40 39
4 4 2 4 5 4 3 4 7 7 4 4 8 11 15 13 11 9 7 8 12 12 10 10 10 6 5 10 9 6 8 12 14 13 10 9 9 8 9 10 9 8 7 5 5 4 2 2 3 5 7 9 11 13 15 16 17 19 20 21 22 24 25 26 27 29 30 31 32 34 35 36 37 38 39 41 42 43 44 44 45 45 45 45 44 43
3 5 3 3 4 2 3 3 6 4 6 7 6 8 14 14 13 11 10 12 13 10 6 6 5 2 7 9 9 9 11 12 14 14 12 11 12 12 11 11 10 9 8 6 4 3 2 2 3 5 7 9 11 12 15 17 18 19 21 22 23 24 26 27 28 29 30 31 32 34 35 36 37 37 39 40 41 42 43 44 45 46 46 46 46 46
3 4 3 2 3 2 2 3 4 5 8 5 4 2 9 11 12 13 12 10 8 8 7 9 9 5 10 12 10 11 14 14 13 13 11 11 12 13 13 12 10 9 8 6 4 3 2 3 4 6 7 10 11 13 15 17 18 20 21 22 24 25 26 27 28 29 29 31 32 33 34 35 36 37 38 39 39 40 41 43 44 45 46 47 48 48
4 4 2 1 2 3 2 4 5 4 2 2 5 3 3 6 7 7 9 8 7 10 9 12 15 9 10 13 11 10 14 15 13 12 12 12 12 12 12 11 10 8 7 5 3 2 2 3 5 7 8 10 12 14 16 17 19 20 21 22 24 24 25 26 27 28 29 29 30 31 32 34 35 36 37 38 39 40 40 42 43 44 46 47 48 49
6 5 2 1 3 3 3 5 3 4 4 4 6 4 5 6 7 7 6 8 9 12 12 12 13 9 9 12 11 13 17 14 10 9 13 13 11 11 11 10 8 7 6 3 2 1 2 4 5 6 8 9 12 14 16 18 19 20 22 22 23 24 24 25 26 27 28 28 29 30 31 32 34 35 36 37 38 39 40 41 42 43 45 46 48 49
4 4 4 4 3 3 3 3 1 2 7 8 6 4 9 13 12 10 5 6 7 15 21 17 11 10 10 10 13 19 17 9 3 8 13 13 11 11 10 8 7 6 4 3 1 1 2 4 5 7 9 10 12 15 16 18 19 20 21 22 22 23 24 25 26 27 28 29 29 30 31 32 34 35 36 37 37 38 40 40 41 43 44 46 48 49
4 2 5 5 3 3 3 4 4 5 8 7 4 4 11 19 16 10 4 8 5 11 21 18 11 13 14 16 20 19 12 5 5 10 16 14 11 12 10 8 7 4 3 2 1 2 4 5 6 8 11 12 13 15 17 19 20 20 21 22 22 24 25 26 27 28 29 30 31 32 33 34 35 36 36 37 37 38 39 40 41 42 44 46 47 49
5 3 4 5 5 6 6 5 4 4 5 5 5 4 10 18 16 11 4 9 3 9 19 21 20 19 18 22 23 15 8 7 7 11 19 16 12 12 9 6 5 3 1 1 3 4 5 7 8 10 12 13 14 16 18 20 21 21 22 23 24 25 26 27 28 29 30 31 32 32 33 34 35 36 37 38 39 39 40 40 41 42 43 45 46 48
3 3 4 6 7 8 9 7 4 3 5 5 4 7 14 16 11 6 7 6 5 12 19 23 22 19 18 24 24 14 9 9 8 16 22 17 12 11 7 4 3 0 2 3 5 6 7 9 10 11 12 14 15 17 19 21 22 23 24 25 26 28 29 29 30 31 32 33 33 33 34 34 35 36 36 37 38 39 40 40 41 42 44 44 45 47
4 3 3 6 6 6 7 7 5 5 5 5 6 10 15 11 4 7 7 5 8 13 15 17 16 13 16 24 24 17 12 13 16 21 20 14 11 9 6 3 2 2 3 5 7 9 10 11 11 12 13 15 17 19 21 23 25 26 27 28 29 31 32 32 33 34 35 35 36 36 36 36 36 36 36 37 38 39 40 40 41 42 43 44 45 46
6 4 3 4 5 4 4 6 6 5 4 13 14 7 6 6 4 7 9 7 7 12 13 13 13 12 17 22 21 19 19 19 19 18 15 13 11 7 4 3 1 3 4 6 9 11 12 13 14 15 16 17 20 22 24 26 28 29 29 30 31 33 34 35 36 36 37 37 38 38 38 38 38 38 38 38 38 40 41 41 41 41 42 43 45 47
5 5 4 4 4 5 5 6 6 2 8 21 16 4 9 11 3 5 11 9 9 14 15 14 15 17 20 23 23 22 21 18 17 14 12 11 8 5 3 2 3 4 6 8 10 13 15 16 17 18 18 20 22 24 26 29 31 31 32 32 33 35 36 37 38 39 39 39 40 40 40 41 41 40 40 39 39 40 40 40 41 41 42 43 45 46
5 5 4 4 4 5 3 4 4 4 13 23 14 2 11 19 10 5 9 8 10 15 16 17 20 21 20 21 23 21 18 16 15 13 10 8 6 4 3 3 5 7 9 11 13 15 18 19 21 21 22 22 23 25 27 30 32 33 34 34 34 36 37 39 39 40 41 41 41 41 41 42 42 41 41 40 39 39 40 40 40 41 42 43 44 45
2 2 2 2 2 3 1 2 4 3 8 17 15 5 10 19 16 11 9 8 10 15 17 20 23 23 21 21 20 17 15 13 11 9 8 6 3 3 4 6 7 9 12 14 15 18 20 22 24 25 26 26 26 27 29 30 32 34 34 34 34 35 37 38 39 39 40 40 40 40 40 41 41 41 40 40 38 38 38 38 39 40 42 42 42 43
2 3 3 1 3 4 3 3 3 3 4 10 14 12 11 13 16 16 14 13 15 18 20 22 23 22 20 18 16 14 12 10 8 6 5 3 3 5 7 9 10 12 15 16 19 21 23 25 27 28 30 30 30 30 31 31 31 33 34 34 35 36 37 38 39 40 40 40 40 40 40 41 41 42 42 41 40 39 38 38 38 39 41 41 41 41
3 6 4 2 3 4 3 3 1 2 4 8 11 13 13 14 16 17 17 17 19 21 21 21 21 20 19 16 13 12 10 8 7 5 4 5 6 8 10 12 14 15 17 19 22 24 26 28 29 30 31 32 31 31 31 31 32 33 34 36 37 39 40 41 41 42 43 42 42 42 42 42 43 43 43 43 42 41 40 39 38 39 39 39 38 39
5 6 5 3 3 2 1 3 2 4 2 6 12 14 16 17 18 18 18 19 22 24 23 21 20 18 16 14 12 10 8 7 6 6 6 8 10 11 13 16 18 19 21 23 24 26 27 28 30 31 32 32 32 33 33 34 35 36 37 38 39 41 42 43 44 45 45 45 45 45 44 44 44 44 44 44 44 44 43 41 40 40 40 38 36 36
5 5 3 3 4 3 3 7 10 6 0 8 16 17 18 18 19 20 22 23 24 24 23 22 20 17 15 13 11 9 8 7 7 7 8 10 12 14 17 19 21 23 24 25 26 26 27 29 30 31 33 34 34 36 36 37 38 38 39 40 40 42 43 45 46 47 47 47 46 46 45 45 45 45 44 44 45 46 45 44 42 41 40 39 36 34
8 7 7 6 5 6 9 16 21 12 4 10 20 22 21 21 20 21 24 25 24 22 19 18 18 16 14 13 11 9 9 8 8 9 10 12 14 16 19 21 23 24 25 25 26 27 28 30 31 33 35 36 37 38 39 40 40 40 40 41 41 42 44 45 46 48 48 48 47 46 45 45 45 44 44 43 44 45 46 46 45 42 40 38 36 35
Wind_Direction
118 124 166 185 189 190 187 154 142 152 139 139 128 107 138 164 245 254 262 310 25 134 243 248 260 277 276 277 279 282 288 287 280 278 274 271 268 266 265 264 262 260 260 260 260 258 258 260 260 260 259 259 259 260 261 261 260 260 259 258 257 257 256 255 255 255 256 256 256 256 256 257 257 258 259 259 260 261 263 266 268 269 270 271 271 272
111 159 211 212 193 170 149 128 112 102 91 100 125 120 101 182 243 274 264 319 7 109 254 4 332 282 270 273 272 277 284 276 269 269 270 271 270 269 268 267 266 266 266 266 265 265 265 266 264 261 258 255 255 256 258 259 258 257 255 255 257 258 257 256 256 256 256 257 257 259 261 262 263 263 264 265 265 264 263 264 266 268 270 271 273 273
120 208 229 192 145 110 94 94 96 91 88 87 111 124 140 215 254 292 300 335 9 40 266 357 344 285 272 271 270 271 268 268 272 270 270 273 273 275 274 273 272 270 268 268 267 268 269 268 264 260 256 253 252 252 253 254 253 252 251 253 256 258 260 261 260 259 260 260 260 262 263 265 266 266 267 268 269 269 267 266 265 265 265 266 268 271
166 254 233 162 137 111 83 61 91 86 79 92 109 128 173 243 161 234 295 337 8 73 259 325 319 285 290 297 286 280 265 272 281 276 273 274 275 280 282 281 280 278 277 275 274 275 271 263 257 253 249 247 247 246 247 248 249 250 250 252 255 257 261 263 264 265 265 264 262 262 262 263 263 264 265 265 265 264 264 263 263 262 260 259 261 264
191 270 162 137 125 117 112 88 112 110 75 75 138 137 160 200 175 198 287 335 357 32 29 12 335 294 322 331 299 313 316 300 304 296 294 296 290 290 290 287 285 285 285 285 296 296 259 239 235 236 235 237 240 240 242 243 245 247 249 252 254 256 259 262 264 267 267 265 264 262 260 259 259 260 261 261 262 263 264 265 266 267 264 262 263 263
214 243 136 127 88 107 121 151 176 146 124 284 209 171 167 170 159 145 40 54 35 8 353 26 18 291 320 325 276 308 346 325 327 334 340 353 346 318 304 297 287 280 275 275 325 39 145 204 218 222 221 225 229 231 235 237 239 242 245 248 252 255 257 260 263 265 267 267 267 265 263 262 262 263 263 266 269 271 273 275 276 276 273 270 268 266
197 100 118 124 115 113 120 170 207 150 123 194 229 170 142 130 125 126 104 78 88 246 327 44 103 260 316 317 277 315 336 317 329 346 1 15 21 20 10 1 357 333 141 102 78 72 70 78 184 214 214 217 222 229 234 235 237 239 242 246 249 253 255 257 261 264 267 269 270 271 271 271 270 270 272 275 278 279 280 280 279 277 276 274 272 270
130 101 79 96 104 107 129 186 209 146 126 199 221 127 120 119 127 139 108 87 195 228 331 15 101 216 301 282 277 326 331 318 340 343 354 16 28 36 45 54 66 79 88 85 78 71 67 69 75 102 178 207 221 234 239 237 236 235 237 243 248 253 257 260 264 267 270 273 275 277 277 276 275 276 279 281 281 281 281 280 279 279 278 277 275 273
92 143 163 135 107 123 170 214 186 133 113 235 191 115 118 121 123 123 95 90 21 23 313 326 49 169 270 276 301 348 327 313 339 324 326 2 23 35 45 55 63 70 74 73 71 68 68 69 69 71 75 80 122 217 228 226 230 235 241 250 257 262 266 268 270 272 274 276 277 278 278 277 278 280 282 282 281 281 281 280 281 281 280 280 279 278
53 171 184 143 135 175 189 323 150 118 97 173 143 96 82 76 81 80 86 103 50 44 243 275 19 137 265 287 310 2 306 270 289 290 302 353 24 35 42 52 63 68 68 68 67 67 67 69 69 68 68 70 73 77 82 85 77 337 298 298 296 292 288 282 279 278 278 278 278 278 278 279 281 282 282 281 281 281 281 282 283 283 283 284 283 282
338 63 99 107 137 162 132 70 44 64 126 139 115 75 64 39 37 50 54 86 65 338 251 260 307 200 270 286 271 233 232 214 198 289 326 359 27 35 44 57 68 75 76 75 73 70 68 66 65 64 64 68 71 73 73 70 67 62 53 44 29 11 353 330 315 305 298 292 287 285 284 284 285 285 283 282 281 282 283 283 285 286 286 285 284 283
2 67 53 69 127 128 107 65 41 60 109 114 90 90 83 6 9 26 0 41 94 255 261 273 288 161 209 263 257 241 257 226 181 145 2 356 17 32 49 66 73 78 81 80 77 73 71 67 63 61 59 60 62 63 64 63 61 57 50 45 37 25 13 359 346 332 317 304 298 296 293 292 292 289 286 285 284 284 284 285 286 286 284 283 282 281
34 78 308 22 174 164 119 78 48 16 31 74 95 104 93 11 9 6 318 354 198 240 272 286 263 193 230 249 258 261 261 244 222 209 294 333 8 36 58 73 77 79 79 78 76 72 70 68 64 61 58 54 51 46 45 43 38 35 30 26 19 9 2 356 348 338 323 311 305 303 299 297 296 293 291 291 290 289 287 286 285 283 282 281 279 278
346 309 305 99 216 214 161 125 136 245 199 128 134 128 127 117 90 258 267 289 255 256 295 289 269 251 268 264 245 249 252 248 252 250 256 292 0 42 69 80 80 80 79 76 74 70 67 64 62 61 59 56 52 46 41 36 29 26 26 26 25 20 18 16 12 6 357 344 331 319 310 305 301 298 296 294 293 293 291 289 287 284 282 279 277 277
171 272 226 165 190 190 179 165 152 143 134 167 156 127 143 153 148 199 215 201 231 269 300 294 277 191 213 265 227 241 276 280 274 258 231 230 54 77 88 88 87 84 81 78 74 68 63 59 57 56 55 53 51 48 46 44 40 39 41 45 44 39 34 30 26 23 20 14 5 352 339 328 317 310 305 301 298 296 293 291 288 284 282 279 276 275
163 239 256 301 234 151 163 206 133 111 111 229 127 107 154 183 137 133 176 172 170 299 296 268 245 212 213 283 278 284 301 297 282 226 211 188 133 115 103 96 94 88 83 78 71 64 58 54 51 49 47 46 44 42 41 42 43 44 47 48 43 36 31 26 21 18 16 13 10 5 358 349 338 327 318 311 305 300 295 290 285 281 279 277 275 274
156 247 310 353 29 81 110 190 102 109 164 155 124 167 210 166 113 111 179 44 78 178 270 230 248 291 318 296 316 23 342 312 30 106 150 147 135 120 109 103 96 88 80 71 62 57 52 47 43 39 36 33 30 29 27 27 29 34 40 35 26 21 16 10 7 3 359 356 356 354 352 349 343 336 328 319 310 304 298 291 286 283 281 279 278 278
154 136 328 32 86 12 39 96 64 41 104 121 175 201 184 120 95 107 144 13 42 233 277 310 228 286 334 255 325 49 133 221 25 93 120 131 134 124 114 106 95 84 75 66 57 52 46 39 33 27 22 16 11 9 8 8 7 9 11 3 356 354 351 348 346 344 341 339 340 340 341 341 338 336 333 325 317 309 302 296 292 287 285 285 285 284
133 116 320 13 115 306 2 94 80 19 42 111 170 162 119 133 150 96 133 154 126 224 280 310 269 251 202 222 289 179 171 186 160 125 121 131 136 129 117 105 93 82 72 64 56 48 40 32 23 16 9 1 355 352 352 352 350 348 340 328 327 329 331 330 328 330 331 331 332 332 332 332 332 331 330 328 325 317 308 301 295 290 288 289 288 287
122 124 235 317 298 300 14 106 184 206 26 54 106 114 82 125 157 161 149 159 175 188 256 311 325 258 227 216 226 215 193 178 156 140 142 145 141 132 118 102 87 75 65 58 52 44 39 34 26 20 13 2 352 344 340 338 336 334 325 317 315 316 320 322 322 326 327 327 326 325 326 325 325 324 323 323 324 322 317 308 298 293 290 290 289 288
106 133 180 325 332 228 182 221 192 171 141 97 119 158 177 75 111 155 104 113 142 154 182 264 298 269 250 208 200 209 196 181 160 145 157 155 143 130 113 93 76 67 62 56 50 44 40 37 30 26 18 8 355 340 334 333 332 330 326 326 325 322 322 323 325 326 326 325 324 322 322 320 319 318 317 318 318 318 319 315 307 300 294 290 290 289
125 145 157 135 230 200 219 259 211 178 169 157 170 183 175 148 123 150 243 252 122 138 166 174 258 271 258 185 186 201 192 189 167 149 156 157 143 129 107 80 64 63 62 57 53 46 40 35 28 21 11 3 357 346 341 340 335 332 331 336 337 333 331 330 329 329 329 332 332 330 328 323 319 316 314 315 315 314 314 313 310 306 301 297 295 292
115 107 118 143 213 213 244 286 233 206 147 129 177 190 167 157 136 150 205 220 136 132 145 125 255 272 258 189 203 227 205 186 167 148 149 152 143 131 104 65 58 67 67 62 59 50 42 33 22 12 2 358 357 352 350 350 348 346 344 345 344 340 339 339 337 336 337 338 340 338 335 331 325 321 317 316 314 313 312 310 308 307 304 302 301 297
120 104 113 64 302 304 322 343 20 39 74 130 235 181 156 181 146 146 181 170 151 174 140 98 270 267 275 289 249 226 193 181 171 149 148 151 141 131 100 56 60 73 67 60 55 47 40 26 13 6 1 358 358 354 352 357 1 0 356 352 349 345 345 344 343 343 342 342 342 339 335 331 327 325 324 322 321 320 318 316 313 309 305 302 300 297
178 151 127 120 18 351 343 345 333 309 195 192 228 185 157 133 98 103 123 100 144 205 159 148 232 252 277 333 31 127 156 171 176 155 153 153 139 126 77 47 66 71 57 54 51 43 31 17 9 8 7 4 1 357 354 357 0 1 358 354 352 351 351 350 348 347 346 345 344 341 336 332 328 326 326 326 327 326 325 323 321 317 313 308 303 299
174 187 150 153 174 194 205 218 222 206 178 189 199 175 169 141 137 155 117 103 229 222 158 173 227 250 281 338 59 116 144 167 182 166 162 157 143 132 18 51 87 73 49 41 41 35 20 11 6 3 3 2 1 0 358 356 358 360 357 353 351 350 350 350 347 346 344 343 341 339 335 331 328 325 324 324 324 324 324 324 322 321 320 317 313 310
135 227 190 188 203 204 194 195 171 126 138 191 185 167 173 172 170 156 115 167 205 160 177 219 199 182 244 240 170 184 181 186 204 200 187 174 166 210 260 121 94 46 33 26 25 17 7 5 2 358 356 356 355 354 353 352 352 351 348 347 346 345 345 344 342 341 340 338 337 336 333 330 326 323 321 320 320 320 320 320 320 319 319 319 318 316
90 219 206 203 221 216 163 174 179 138 163 188 174 171 182 181 174 165 189 212 164 118 237 232 155 169 228 217 204 210 203 214 229 214 192 187 208 222 190 136 75 42 22 10 2 352 345 340 336 335 335 335 337 338 339 342 344 346 346 345 344 343 343 342 341 340 339 337 336 335 333 332 329 325 322 320 318 317 316 316 316 316 316 316 316 315
122 212 211 189 221 230 140 176 191 163 175 182 174 183 183 177 178 186 210 215 160 179 239 197 152 200 220 201 215 214 197 206 215 207 194 192 202 195 180 343 348 348 342 340 334 327 324 320 318 320 321 324 327 327 328 331 335 341 344 345 345 344 343 342 342 342 340 339 338 336 335 334 333 331 328 326 323 320 317 315 314 314 313 313 312 311
147 216 197 169 215 238 197 195 200 173 172 177 186 191 181 182 190 195 213 218 192 213 239 144 168 226 212 189 220 215 199 206 207 210 230 242 221 237 325 322 324 329 328 324 313 305 304 306 307 311 315 320 323 324 328 331 335 340 342 344 344 343 343 343 342 341 339 338 338 337 335 334 333 333 333 332 330 328 325 322 320 318 316 313 310 308
180 213 165 140 200 253 191 124 189 185 181 192 203 199 186 192 201 206 217 218 199 228 247 144 207 257 220 191 211 201 197 214 231 256 277 292 283 291 306 294 288 292 295 296 284 275 276 281 290 302 311 321 327 329 333 335 338 341 341 342 341 341 342 340 337 336 335 335 335 334 333 332 331 331 332 332 332 331 331 329 328 326 323 319 316 311
174 189 82 109 171 259 336 113 122 84 87 233 238 212 197 197 206 214 218 202 185 217 233 220 239 259 206 181 193 190 198 226 252 262 262 248 239 244 238 228 230 238 246 250 245 241 248 261 286 309 319 328 331 334 335 336 340 341 339 339 339 338 337 335 332 331 331 331 331 330 329 328 327 328 328 328 329 329 329 329 328 328 326 324 322 319
151 145 124 138 172 266 322 128 127 96 96 256 250 212 199 202 206 207 216 219 207 203 206 216 233 243 171 162 171 184 205 225 238 234 219 210 213 211 210 209 208 210 213 215 221 226 245 279 320 333 337 339 336 336 338 338 340 341 340 339 337 335 333 330 329 328 327 328 327 325 325 324 322 323 323 323 323 324 324 325 325 325 325 323 322 320
110 120 152 164 149 241 272 126 109 126 197 235 244 193 188 197 200 198 210 221 216 207 220 247 249 155 140 161 172 182 196 209 217 215 210 212 211 199 192 190 188 192 195 199 211 232 275 320 346 347 346 346 340 339 341 340 340 342 340 338 336 334 333 330 329 329 327 327 326 325 324 323 321 320 320 319 319 319 319 319 320 320 321 320 319 318
108 107 135 132 112 144 182 114 128 204 222 246 305 212 180 182 184 197 222 234 209 205 243 266 260 211 169 183 193 189 191 194 199 206 201 194 195 188 180 177 180 186 191 194 206 238 283 317 337 343 348 348 342 340 340 338 337 338 337 336 334 333 332 330 329 330 328 327 326 325 324 323 322 321 320 319 318 317 317 317 316 317 317 316 316 316
133 121 111 110 127 129 135 169 196 233 267 284 296 296 138 132 143 182 240 262 217 202 214 232 244 232 176 192 209 191 182 180 176 179 174 167 173 174 173 176 176 183 195 196 204 240 296 326 333 340 344 343 337 333 333 331 331 331 332 331 331 330 329 327 326 326 326 325 324 324 324 323 322 321 321 320 319 318 318 317 317 317 317 315 314 314
142 142 130 179 191 148 161 202 229 332 330 256 246 234 152 145 148 161 221 250 221 207 204 216 240 234 179 187 191 167 162 158 153 165 163 157 162 166 169 174 172 176 188 186 190 269 337 344 338 335 332 328 325 322 321 323 322 323 324 324 323 323 322 321 322 321 321 321 322 322 322 322 321 320 320 320 320 319 319 318 318 318 317 316 314 313
146 162 166 195 213 145 161 223 230 261 253 236 217 185 170 175 171 157 190 249 233 209 207 211 230 222 187 167 158 154 152 144 172 194 172 157 160 163 160 165 169 169 175 177 186 296 319 324 322 320 317 315 315 314 313 315 315 315 317 317 317 317 316 315 316 316 315 317 318 319 319 320 319 319 318 318 317 317 317 317 317 317 317 316 314 313
119 135 157 184 211 165 183 227 208 213 249 250 222 184 180 181 166 134 179 252 252 202 205 209 217 218 201 175 162 154 148 168 236 202 175 161 159 162 159 161 167 167 177 197 243 281 290 303 308 311 314 313 312 313 312 314 317 318 319 319 319 318 317 316 317 316 316 316 317 318 318 318 317 317 316 315 315 314 314 313 314 314 315 315 314 313
131 138 169 189 204 202 207 227 226 230 255 251 238 211 177 170 149 121 206 251 225 173 195 203 209 216 204 178 166 159 172 215 231 191 177 169 161 163 163 160 163 170 217 273 307 310 310 318 317 316 319 318 317 318 318 318 320 322 322 324 324 323 322 321 320 320 319 319 319 319 319 319 319 318 317 316 315 314 313 312 311 311 311 312 313 313
149 161 189 196 204 208 212 225 248 255 244 241 224 164 152 147 140 164 223 231 173 179 196 201 206 210 194 174 170 177 202 210 188 170 171 170 162 163 164 161 170 230 333 318 320 324 324 326 327 327 329 327 325 325 324 322 324 325 325 326 326 324 323 322 321 320 320 320 320 320 320 320 319 318 318 318 317 316 315 314 312 310 309 310 311 311
168 170 189 199 201 203 214 225 239 256 236 188 140 141 147 143 173 217 201 161 172 188 193 197 202 199 185 181 181 179 171 160 156 158 161 164 164 164 165 170 190 315 328 320 320 322 323 325 328 330 331 330 329 328 326 325 325 325 325 326 325 323 321 320 319 318 318 318 318 318 319 318 318 318 317 318 318 317 317 317 316 313 310 309 310 310
175 174 180 189 187 185 211 213 215 255 215 147 128 126 169 180 217 198 167 141 172 184 183 188 191 178 173 175 173 164 154 149 151 156 158 163 168 171 181 197 249 307 312 316 317 317 320 323 325 326 328 328 328 326 324 323 321 321 322 322 320 319 317 317 316 315 315 316 316 316 317 317 317 317 317 317 317 317 317 318 318 316 313 311 310 311
189 186 186 196 193 186 205 209 200 212 165 158 153 174 203 196 198 164 164 157 163 175 178 174 170 168 170 169 162 159 157 155 158 163 164 168 176 187 208 248 297 307 312 318 317 317 319 319 319 320 322 322 322 321 320 319 318 318 318 318 317 316 315 314 313 313 313 313 314 314 315 315 315 316 316 316 315 315 315 316 316 315 314 313 312 311
212 200 177 185 199 187 192 214 203 165 170 180 187 185 181 191 198 170 173 181 173 176 179 171 164 164 168 169 164 160 161 162 164 168 169 173 185 202 235 287 307 315 320 321 318 317 317 316 315 315 314 314 315 315 315 315 315 316 317 317 316 315 313 312 311 311 312 311 312 312 311 311 312 312 312 312 312 311 312 312 312 312 313 313 313 312
243 209 137 143 215 228 251 214 190 158 176 192 204 203 180 195 205 200 201 214 199 186 183 177 172 168 167 171 169 163 165 169 168 170 175 180 204 251 287 305 311 315 317 316 315 314 312 312 313 312 312 313 314 314 314 315 315 316 317 318 317 316 314 313 313 313 314 314 313 313 311 310 309 309 309 308 308 307 308 308 309 310 312 313 313 313
279 183 154 160 206 208 229 232 193 177 185 191 202 210 200 198 205 209 212 214 204 191 181 176 175 172 170 172 174 170 170 173 175 183 193 210 258 282 295 305 309 310 312 312 311 311 310 311 311 311 312 314 315 315 315 315 315 317 317 318 318 316 315 315 315 316 317 318 318 317 315 313 310 308 308 307 306 305 305 305 306 307 309 311 312 313
210 174 171 218 205 181 215 258 178 120 164 180 191 203 204 201 206 209 208 203 193 183 176 173 176 178 176 176 181 182 180 183 195 215 238 260 280 293 299 304 306 308 310 311 310 310 310 310 310 310 311 312 314 315 315 315 316 316 316 317 316 315 315 315 315 316 317 318 319 319 318 316 313 310 309 307 306 304 303 304 304 304 306 309 311 311
147 165 180 192 181 154 302 261 147 86 92 198 194 196 198 200 201 197 192 187 182 178 175 174 176 181 182 182 188 196 201 211 227 248 267 279 291 299 302 305 308 310 311 310 309 309 309 308 309 309 310 312 314 314 314 314 315 315 316 316 315 315 315 314 314 315 316 316 317 318 318 317 315 312 310 308 307 305 303 303 304 304 304 306 308 309
143 173 181 148 162 197 230 196 176 157 216 212 198 191 187 187 187 183 178 176 176 177 178 177 177 181 187 191 198 209 217 232 249 263 276 289 299 303 306 309 310 309 308 307 306 306 307 308 309 310 311 313 313 313 313 313 314 314 315 315 315 314 313 313 313 313 314 314 314 315 315 315 314 312 310 309 308 305 303 302 302 303 304 305 307 307
187 187 177 163 180 219 220 199 189 183 188 197 192 187 182 180 180 179 176 176 178 180 182 184 186 189 193 200 208 216 226 242 257 269 283 295 300 303 305 305 303 303 303 303 304 306 307 308 309 310 311 312 312 312 312 312 313 314 314 314 313 312 311 312 312 311 311 312 312 312 312 311 311 310 308 307 306 305 302 301 300 301 302 305 306 306
Height
1518 1521 1524 1524 1525 1525 1526 1528 1530 1532 1533 1535 1539 1540 1540 1540 1539 1543 1544 1545 1544 1541 1542 1544 1543 1540 1536 1532 1530 1527 1528 1529 1527 1526 1525 1525 1525 1525 1525 1525 1525 1525 1526 1528 1530 1531 1532 1532 1533 1534 1535 1535 1536 1537 1538 1539 1540 1541 1542 1543 1544 1545 1546 1547 1548 1549 1550 1551 1551 1552 1553 1553 1554 1555 1557 1557 1558 1559 1560 1560 1561 1561 1562 1563 1563 1564
1518 1522 1523 1522 1524 1525 1528 1532 1531 1533 1536 1537 1538 1539 1542 1543 1540 1543 1544 1544 1545 1541 1541 1546 1543 1538 1534 1531 1527 1525 1526 1525 1524 1523 1522 1522 1522 1522 1523 1522 1522 1522 1523 1525 1526 1527 1528 1529 1530 1530 1531 1532 1533 1534 1535 1536 1537 1539 1539 1540 1541 1543 1543 1544 1546 1546 1547 1548 1549 1550 1551 1552 1553 1554 1554 1555 1556 1557 1558 1558 1559 1559 1560 1560 1561 1562
1522 1521 1521 1523 1526 1528 1531 1533 1531 1532 1535 1537 1540 1539 1540 1544 1544 1544 1545 1545 1545 1541 1540 1545 1542 1534 1531 1529 1525 1524 1524 1522 1521 1521 1520 1520 1519 1519 1520 1519 1520 1519 1520 1521 1522 1524 1524 1525 1525 1526 1527 1528 1530 1531 1532 1533 1534 1536 1536 1537 1539 1540 1541 1542 1543 1544 1545 1546 1547 1548 1549 1550 1551 1551 1552 1553 1553 1554 1555 1555 1556 1557 1557 1559 1560 1560
1523 1521 1520 1525 1526 1526 1530 1533 1530 1532 1536 1538 1540 1538 1540 1546 1545 1541 1542 1545 1546 1544 1543 1544 1540 1532 1528 1526 1522 1521 1522 1520 1520 1519 1518 1518 1517 1517 1517 1517 1517 1517 1517 1518 1519 1521 1521 1521 1521 1522 1523 1524 1526 1527 1528 1530 1531 1533 1534 1535 1537 1538 1539 1540 1541 1542 1543 1544 1545 1546 1547 1548 1548 1549 1549 1550 1550 1551 1551 1552 1553 1554 1555 1557 1558 1558
1520 1521 1522 1524 1525 1525 1528 1532 1530 1530 1535 1540 1539 1537 1538 1542 1543 1542 1544 1545 1545 1547 1547 1542 1536 1530 1526 1524 1521 1521 1522 1519 1518 1518 1516 1517 1517 1515 1515 1515 1516 1515 1516 1517 1517 1518 1518 1518 1519 1519 1520 1521 1522 1524 1525 1527 1528 1530 1532 1533 1534 1535 1536 1538 1539 1540 1541 1542 1543 1544 1545 1545 1545 1546 1546 1546 1546 1547 1548 1549 1551 1551 1553 1554 1555 1555
1519 1523 1523 1523 1525 1525 1526 1530 1531 1530 1534 1539 1537 1535 1536 1536 1539 1543 1545 1544 1543 1545 1549 1547 1540 1532 1526 1523 1521 1521 1523 1520 1517 1517 1516 1515 1515 1514 1513 1513 1514 1514 1514 1516 1516 1516 1516 1516 1517 1517 1518 1519 1520 1521 1522 1524 1525 1527 1528 1530 1531 1533 1534 1536 1537 1538 1539 1540 1541 1541 1542 1542 1542 1542 1542 1543 1544 1545 1546 1547 1549 1550 1550 1551 1552 1553
1520 1523 1523 1522 1524 1525 1527 1528 1530 1532 1534 1537 1536 1537 1538 1537 1538 1541 1541 1542 1544 1546 1552 1553 1547 1540 1531 1522 1521 1525 1525 1520 1518 1518 1516 1516 1515 1514 1513 1512 1512 1513 1514 1515 1515 1515 1515 1515 1516 1516 1517 1518 1519 1519 1520 1522 1523 1525 1526 1527 1529 1530 1532 1533 1535 1536 1537 1538 1538 1539 1539 1539 1539 1539 1540 1541 1542 1543 1544 1545 1545 1546 1547 1548 1549 1549
1520 1523 1524 1523 1523 1526 1527 1527 1529 1531 1533 1535 1538 1539 1539 1536 1538 1541 1540 1542 1547 1549 1552 1553 1550 1549 1541 1527 1525 1530 1524 1518 1519 1519 1517 1517 1516 1515 1514 1513 1513 1514 1514 1515 1515 1515 1516 1515 1515 1516 1517 1518 1518 1519 1520 1521 1522 1523 1525 1526 1527 1529 1530 1532 1533 1534 1535 1535 1536 1536 1537 1537 1537 1537 1537 1539 1540 1540 1541 1541 1542 1543 1543 1544 1545 1546
1519 1520 1521 1521 1523 1525 1526 1527 1529 1530 1531 1536 1541 1541 1540 1539 1541 1543 1542 1545 1552 1552 1548 1551 1553 1551 1544 1530 1528 1531 1523 1518 1520 1520 1519 1518 1517 1517 1516 1515 1515 1515 1515 1515 1515 1516 1516 1516 1516 1516 1517 1517 1518 1519 1520 1521 1522 1523 1524 1525 1527 1528 1529 1530 1531 1532 1533 1534 1534 1534 1534 1534 1534 1535 1535 1536 1537 1537 1537 1538 1538 1539 1539 1540 1541 1542
1520 1520 1520 1520 1521 1523 1527 1531 1532 1529 1530 1537 1542 1542 1542 1545 1546 1546 1545 1545 1552 1552 1547 1554 1558 1552 1541 1527 1525 1528 1523 1522 1522 1521 1521 1519 1518 1518 1517 1517 1516 1516 1516 1516 1517 1517 1517 1517 1517 1517 1518 1518 1519 1519 1520 1521 1522 1523 1524 1526 1526 1528 1528 1529 1530 1531 1532 1532 1532 1532 1532 1532 1532 1533 1533 1534 1534 1534 1534 1534 1535 1535 1536 1537 1537 1538
1520 1520 1521 1522 1521 1523 1528 1533 1535 1533 1532 1536 1539 1538 1540 1545 1546 1548 1551 1549 1551 1553 1553 1562 1566 1557 1545 1529 1523 1525 1523 1522 1522 1521 1521 1519 1519 1519 1518 1518 1517 1517 1518 1517 1518 1518 1518 1519 1519 1519 1519 1519 1520 1520 1521 1522 1523 1524 1525 1526 1526 1527 1528 1529 1530 1530 1530 1530 1530 1530 1530 1530 1530 1531 1531 1531 1531 1532 1532 1532 1532 1532 1533 1533 1533 1534
1521 1521 1522 1522 1523 1525 1527 1531 1536 1536 1536 1536 1534 1535 1540 1546 1548 1549 1552 1551 1552 1553 1557 1568 1571 1562 1550 1531 1521 1523 1523 1524 1523 1521 1522 1520 1520 1520 1519 1519 1519 1518 1519 1519 1519 1519 1520 1520 1520 1520 1520 1521 1521 1521 1522 1522 1523 1524 1525 1526 1527 1527 1528 1528 1528 1529 1529 1529 1528 1528 1529 1528 1529 1529 1529 1529 1529 1529 1529 1529 1529 1529 1529 1529 1530 1530
1521 1521 1523 1523 1524 1524 1523 1530 1538 1539 1537 1536 1535 1537 1543 1552 1556 1553 1556 1560 1557 1556 1561 1570 1569 1560 1549 1530 1520 1520 1520 1522 1524 1522 1522 1522 1521 1521 1521 1520 1520 1520 1520 1520 1520 1520 1520 1521 1520 1521 1521 1521 1522 1522 1522 1523 1523 1524 1524 1525 1526 1526 1527 1527 1527 1527 1527 1527 1527 1527 1527 1527 1527 1527 1527 1527 1526 1527 1527 1526 1527 1526 1526 1526 1526 1527
1523 1523 1523 1522 1523 1522 1520 1525 1535 1537 1536 1534 1534 1536 1541 1553 1559 1558 1566 1570 1561 1557 1565 1572 1565 1552 1542 1528 1520 1518 1518 1520 1522 1522 1523 1522 1522 1522 1522 1522 1521 1521 1521 1520 1521 1520 1521 1521 1521 1522 1522 1522 1522 1522 1523 1523 1523 1524 1524 1525 1525 1525 1526 1526 1526 1526 1526 1526 1526 1526 1525 1525 1525 1525 1525 1524 1524 1524 1524 1524 1524 1524 1524 1524 1523 1524
1521 1522 1519 1519 1520 1520 1520 1521 1525 1528 1532 1535 1536 1536 1536 1541 1544 1548 1555 1554 1550 1556 1566 1569 1557 1539 1529 1522 1518 1518 1518 1519 1519 1520 1522 1521 1523 1523 1522 1523 1522 1522 1522 1521 1522 1522 1521 1522 1522 1522 1523 1522 1523 1523 1523 1523 1523 1524 1524 1524 1525 1525 1525 1525 1525 1525 1525 1525 1525 1524 1524 1524 1524 1523 1523 1522 1522 1522 1522 1521 1521 1521 1521 1521 1521 1521
1518 1517 1516 1519 1518 1518 1520 1521 1521 1523 1530 1539 1541 1537 1534 1532 1535 1551 1564 1559 1556 1559 1560 1559 1548 1533 1524 1517 1517 1520 1517 1517 1518 1518 1521 1521 1522 1524 1522 1523 1523 1522 1523 1522 1522 1522 1522 1523 1523 1523 1523 1523 1524 1524 1524 1524 1524 1524 1524 1524 1524 1524 1524 1524 1524 1524 1524 1524 1524 1524 1523 1523 1522 1521 1521 1520 1520 1520 1519 1519 1519 1518 1519 1519 1519 1519
1516 1517 1519 1520 1519 1520 1520 1520 1522 1521 1525 1536 1538 1534 1536 1536 1536 1550 1569 1574 1569 1557 1549 1551 1543 1531 1526 1517 1514 1519 1517 1516 1518 1518 1519 1521 1522 1523 1523 1523 1523 1523 1523 1523 1523 1523 1523 1523 1524 1524 1524 1524 1524 1525 1525 1524 1524 1524 1524 1524 1524 1524 1524 1524 1523 1523 1523 1523 1523 1522 1522 1521 1520 1519 1519 1518 1517 1517 1517 1516 1516 1516 1516 1516 1516 1516
1509 1516 1521 1520 1519 1522 1521 1520 1523 1522 1523 1531 1533 1531 1535 1540 1538 1540 1550 1564 1569 1557 1548 1551 1545 1534 1531 1522 1513 1517 1516 1515 1518 1518 1519 1521 1521 1523 1523 1523 1524 1523 1523 1523 1523 1523 1524 1524 1524 1525 1525 1525 1525 1525 1525 1525 1525 1525 1524 1524 1524 1524 1523 1523 1522 1522 1521 1521 1521 1521 1520 1520 1519 1518 1517 1516 1516 1515 1514 1514 1514 1514 1514 1514 1514 1514
1501 1510 1522 1525 1522 1522 1522 1521 1523 1526 1526 1525 1526 1528 1530 1534 1537 1541 1544 1549 1557 1557 1549 1551 1555 1546 1535 1523 1511 1511 1515 1514 1517 1519 1519 1520 1521 1521 1522 1523 1523 1523 1523 1524 1524 1524 1525 1525 1525 1526 1526 1526 1526 1525 1525 1525 1525 1524 1524 1524 1524 1523 1523 1522 1522 1521 1521 1520 1520 1519 1518 1518 1517 1517 1516 1515 1514 1513 1513 1513 1512 1512 1512 1512 1512 1512
1499 1505 1517 1526 1524 1523 1523 1521 1521 1524 1528 1527 1527 1530 1530 1530 1534 1538 1542 1541 1542 1551 1550 1546 1548 1538 1526 1520 1509 1506 1513 1514 1515 1518 1518 1519 1520 1520 1521 1522 1522 1523 1523 1524 1524 1524 1525 1526 1526 1526 1526 1526 1526 1525 1525 1524 1524 1524 1523 1523 1523 1523 1522 1521 1521 1520 1520 1519 1518 1518 1517 1516 1516 1515 1514 1514 1513 1512 1511 1511 1510 1509 1509 1508 1508 1509
1500 1501 1511 1524 1527 1524 1521 1519 1518 1519 1523 1527 1528 1531 1531 1534 1538 1536 1541 1544 1539 1542 1548 1545 1537 1524 1515 1516 1511 1507 1513 1515 1514 1516 1517 1518 1519 1520 1521 1522 1522 1523 1523 1523 1524 1524 1525 1526 1526 1526 1526 1526 1526 1525 1525 1524 1524 1523 1522 1522 1522 1521 1521 1521 1520 1520 1519 1519 1517 1517 1516 1515 1514 1513 1512 1511 1511 1510 1509 1508 1507 1506 1505 1505 1505 1505
1499 1502 1510 1524 1526 1520 1518 1519 1520 1518 1518 1519 1520 1523 1524 1528 1534 1533 1538 1547 1544 1540 1544 1544 1536 1521 1512 1514 1514 1511 1513 1514 1513 1513 1515 1517 1518 1520 1521 1521 1522 1522 1522 1523 1524 1524 1525 1525 1525 1525 1525 1526 1525 1524 1524 1523 1523 1523 1522 1521 1521 1520 1520 1519 1519 1518 1518 1517 1516 1515 1514 1513 1512 1511 1510 1509 1508 1507 1507 1506 1505 1504 1503 1502 1502 1502
1497 1503 1511 1520 1521 1519 1520 1522 1523 1521 1519 1519 1518 1519 1521 1521 1523 1523 1527 1539 1545 1545 1547 1548 1540 1521 1510 1515 1516 1512 1513 1514 1514 1513 1514 1516 1518 1520 1521 1521 1522 1522 1522 1524 1524 1524 1525 1524 1524 1525 1524 1525 1524 1523 1523 1522 1522 1522 1521 1520 1520 1520 1519 1518 1518 1517 1516 1515 1514 1513 1512 1511 1510 1509 1508 1507 1506 1505 1504 1504 1503 1502 1501 1500 1499 1499
1495 1499 1507 1517 1520 1519 1519 1520 1522 1522 1521 1520 1519 1519 1521 1520 1519 1520 1524 1530 1535 1538 1542 1547 1541 1521 1510 1515 1515 1512 1514 1514 1514 1514 1515 1516 1518 1520 1521 1521 1521 1522 1522 1523 1523 1523 1523 1523 1524 1524 1523 1524 1523 1522 1522 1521 1522 1521 1519 1519 1519 1519 1518 1518 1517 1516 1515 1514 1513 1512 1511 1509 1508 1507 1506 1505 1504 1503 1503 1501 1501 1499 1498 1497 1496 1496
1491 1495 1502 1514 1521 1521 1521 1522 1520 1520 1520 1518 1518 1520 1519 1520 1524 1526 1529 1531 1530 1530 1531 1534 1531 1518 1511 1514 1514 1512 1514 1514 1515 1515 1515 1517 1519 1519 1520 1520 1520 1521 1521 1522 1522 1522 1522 1522 1522 1522 1522 1522 1521 1521 1521 1521 1520 1519 1517 1518 1518 1518 1518 1517 1516 1515 1514 1513 1512 1511 1510 1508 1507 1506 1505 1504 1502 1501 1500 1499 1498 1497 1496 1494 1493 1492
1488 1493 1495 1503 1512 1513 1513 1512 1506 1508 1516 1518 1517 1519 1518 1519 1522 1521 1525 1530 1528 1529 1530 1523 1518 1516 1514 1514 1514 1514 1515 1514 1515 1515 1515 1517 1519 1519 1519 1519 1519 1520 1521 1521 1521 1521 1521 1520 1520 1520 1520 1520 1520 1520 1520 1519 1518 1517 1517 1517 1517 1517 1516 1515 1514 1513 1512 1511 1510 1509 1509 1507 1506 1505 1503 1502 1501 1500 1498 1497 1496 1494 1493 1492 1490 1489
1487 1491 1490 1490 1493 1493 1492 1494 1494 1498 1508 1513 1513 1515 1517 1518 1518 1517 1524 1525 1521 1527 1530 1518 1511 1515 1515 1514 1514 1514 1514 1514 1514 1514 1515 1518 1518 1518 1518 1518 1518 1519 1519 1519 1519 1518 1518 1518 1519 1519 1519 1520 1519 1518 1517 1516 1515 1516 1516 1516 1516 1515 1515 1514 1513 1512 1511 1510 1509 1508 1507 1506 1504 1503 1502 1501 1499 1498 1497 1495 1494 1492 1491 1489 1488 1486
1486 1488 1488 1487 1486 1487 1487 1490 1494 1495 1498 1503 1508 1511 1514 1516 1516 1518 1518 1513 1513 1523 1522 1512 1512 1515 1513 1512 1513 1511 1512 1513 1512 1511 1514 1516 1518 1518 1516 1516 1517 1517 1517 1517 1515 1515 1515 1516 1517 1517 1517 1516 1515 1514 1514 1514 1514 1515 1515 1514 1514 1513 1512 1511 1510 1510 1509 1508 1507 1506 1504 1503 1502 1501 1500 1498 1497 1496 1494 1493 1491 1490 1488 1487 1485 1483
1484 1484 1487 1489 1488 1489 1491 1492 1494 1493 1493 1498 1503 1505 1509 1513 1515 1515 1511 1506 1509 1513 1507 1505 1511 1510 1508 1510 1509 1507 1509 1509 1508 1510 1513 1515 1516 1515 1514 1514 1513 1513 1513 1513 1513 1513 1514 1515 1515 1515 1514 1513 1513 1513 1513 1514 1514 1514 1513 1513 1512 1511 1510 1509 1508 1507 1506 1505 1504 1503 1502 1500 1499 1498 1497 1495 1494 1492 1491 1489 1488 1487 1485 1484 1482 1480
1482 1483 1487 1489 1488 1489 1494 1496 1496 1495 1493 1497 1501 1503 1506 1509 1509 1507 1504 1502 1505 1504 1502 1507 1509 1503 1503 1507 1504 1504 1507 1506 1507 1510 1511 1511 1511 1510 1510 1510 1509 1510 1510 1511 1513 1514 1514 1514 1514 1514 1513 1513 1513 1513 1513 1513 1512 1512 1511 1511 1510 1508 1507 1506 1505 1504 1503 1502 1500 1499 1498 1496 1495 1494 1492 1491 1489 1488 1486 1485 1483 1482 1481 1479 1478 1476
1481 1484 1487 1489 1489 1491 1496 1498 1500 1500 1496 1495 1499 1503 1506 1507 1507 1505 1501 1501 1506 1506 1505 1511 1511 1504 1502 1503 1502 1504 1505 1504 1505 1506 1506 1507 1507 1507 1508 1509 1509 1510 1511 1512 1513 1513 1513 1513 1513 1513 1513 1513 1512 1512 1511 1511 1511 1510 1509 1508 1507 1506 1505 1503 1502 1501 1500 1499 1497 1496 1494 1492 1491 1489 1488 1486 1484 1482 1481 1479 1477 1476 1475 1473 1472 1470
1480 1484 1488 1489 1489 1491 1498 1502 1502 1502 1501 1499 1500 1502 1504 1504 1503 1501 1499 1500 1503 1503 1504 1511 1510 1500 1496 1500 1502 1503 1503 1503 1503 1503 1504 1505 1505 1506 1508 1508 1509 1510 1511 1511 1512 1512 1512 1512 1512 1512 1512 1512 1511 1510 1510 1509 1509 1508 1507 1506 1505 1504 1503 1502 1501 1500 1498 1497 1496 1494 1492 1490 1488 1486 1484 1482 1480 1478 1476 1474 1472 1470 1468 1467 1465 1464
1481 1481 1485 1488 1487 1492 1503 1503 1498 1499 1504 1501 1494 1490 1494 1497 1496 1497 1498 1498 1496 1496 1500 1503 1497 1490 1493 1498 1500 1502 1502 1501 1501 1501 1503 1504 1504 1506 1506 1507 1509 1509 1510 1510 1510 1511 1511 1511 1511 1511 1511 1510 1510 1509 1508 1507 1507 1506 1505 1504 1503 1502 1502 1500 1499 1498 1497 1495 1494 1492 1490 1488 1486 1484 1482 1480 1478 1476 1473 1471 1469 1467 1464 1462 1460 1458
1482 1479 1484 1487 1485 1496 1508 1502 1496 1501 1501 1490 1480 1478 1483 1488 1490 1493 1492 1490 1490 1491 1492 1491 1488 1490 1494 1496 1496 1498 1499 1499 1500 1501 1502 1502 1503 1504 1505 1506 1507 1507 1508 1509 1509 1509 1509 1509 1510 1510 1509 1509 1508 1507 1507 1506 1505 1505 1504 1503 1502 1501 1500 1499 1497 1496 1495 1493 1492 1490 1488 1486 1484 1482 1480 1478 1476 1474 1471 1469 1467 1465 1462 1460 1457 1455
1480 1480 1486 1488 1487 1498 1507 1501 1499 1501 1490 1478 1476 1478 1479 1481 1485 1488 1487 1485 1489 1491 1490 1489 1488 1489 1492 1492 1493 1495 1496 1498 1499 1500 1500 1501 1502 1503 1504 1504 1505 1506 1506 1507 1507 1507 1507 1507 1508 1508 1508 1507 1506 1506 1505 1505 1504 1504 1503 1502 1501 1499 1498 1497 1495 1494 1493 1492 1490 1488 1486 1484 1482 1480 1478 1476 1474 1472 1470 1467 1465 1463 1460 1458 1455 1453
1479 1482 1486 1489 1490 1499 1504 1499 1493 1487 1479 1477 1479 1478 1478 1482 1485 1489 1489 1487 1487 1488 1488 1487 1484 1485 1490 1492 1492 1494 1495 1497 1498 1498 1499 1500 1501 1502 1503 1503 1504 1505 1505 1505 1506 1506 1506 1506 1506 1506 1506 1505 1505 1504 1504 1503 1503 1502 1501 1500 1499 1498 1497 1495 1494 1493 1491 1490 1489 1487 1485 1482 1480 1478 1476 1474 1472 1470 1468 1466 1463 1461 1458 1455 1453 1451
1478 1481 1484 1487 1488 1492 1497 1494 1487 1482 1480 1476 1474 1473 1475 1478 1480 1484 1485 1482 1479 1481 1484 1483 1481 1484 1488 1490 1490 1493 1495 1496 1498 1499 1499 1499 1500 1501 1501 1502 1503 1503 1504 1504 1504 1504 1505 1505 1505 1505 1505 1504 1504 1503 1502 1502 1501 1500 1500 1499 1498 1496 1495 1493 1492 1491 1489 1488 1487 1485 1483 1481 1478 1476 1474 1472 1470 1467 1465 1463 1461 1458 1456 1452 1449 1447
1477 1478 1481 1485 1486 1486 1491 1492 1491 1490 1482 1469 1466 1469 1470 1472 1474 1478 1481 1478 1473 1474 1477 1477 1479 1482 1485 1488 1490 1491 1494 1496 1497 1497 1497 1498 1499 1499 1500 1501 1502 1502 1503 1503 1503 1503 1504 1504 1504 1504 1504 1503 1503 1502 1501 1501 1500 1499 1498 1497 1496 1495 1493 1492 1490 1489 1487 1486 1484 1483 1481 1479 1476 1474 1471 1469 1467 1464 1462 1460 1458 1455 1453 1449 1446 1443
1478 1478 1479 1484 1486 1486 1490 1489 1487 1485 1474 1463 1463 1467 1468 1470 1471 1477 1484 1480 1469 1468 1473 1475 1477 1479 1480 1484 1487 1488 1492 1493 1491 1492 1494 1496 1497 1498 1499 1500 1501 1501 1502 1502 1502 1503 1503 1503 1503 1503 1502 1502 1502 1501 1500 1499 1498 1497 1496 1495 1494 1493 1491 1490 1488 1486 1485 1483 1482 1480 1479 1476 1474 1472 1469 1467 1464 1462 1459 1457 1454 1452 1449 1446 1443 1439
1478 1480 1480 1483 1484 1484 1486 1485 1481 1476 1468 1463 1464 1466 1467 1468 1470 1479 1487 1478 1464 1465 1470 1470 1472 1474 1475 1479 1483 1485 1487 1486 1485 1488 1492 1494 1496 1497 1498 1499 1500 1500 1500 1500 1501 1501 1501 1502 1502 1501 1501 1501 1500 1499 1498 1497 1496 1495 1494 1493 1491 1490 1488 1487 1485 1484 1482 1481 1479 1478 1476 1473 1471 1469 1466 1463 1461 1458 1456 1453 1451 1448 1445 1442 1439 1435
1477 1478 1478 1479 1479 1479 1481 1481 1477 1471 1465 1463 1465 1465 1466 1469 1473 1477 1476 1466 1460 1464 1465 1465 1468 1470 1472 1476 1479 1481 1482 1482 1483 1487 1489 1492 1494 1496 1497 1498 1498 1498 1499 1499 1499 1499 1500 1500 1500 1500 1499 1498 1497 1497 1495 1494 1493 1492 1491 1490 1488 1487 1485 1483 1482 1480 1479 1477 1476 1474 1472 1470 1468 1465 1463 1460 1457 1454 1452 1450 1447 1444 1441 1438 1435 1432
1472 1474 1475 1474 1475 1476 1476 1476 1475 1468 1460 1460 1464 1466 1466 1469 1472 1469 1462 1459 1461 1463 1463 1465 1468 1469 1472 1475 1477 1479 1481 1482 1484 1486 1489 1491 1493 1494 1496 1496 1496 1497 1497 1497 1497 1497 1497 1498 1498 1497 1497 1496 1495 1494 1492 1491 1490 1489 1488 1487 1485 1483 1481 1480 1478 1476 1475 1474 1472 1470 1469 1467 1465 1462 1460 1457 1454 1451 1448 1446 1443 1440 1437 1434 1430 1427
1461 1465 1469 1469 1469 1471 1474 1474 1472 1465 1456 1456 1462 1465 1465 1464 1462 1458 1457 1460 1462 1462 1463 1466 1468 1470 1473 1475 1477 1479 1481 1482 1484 1486 1488 1490 1492 1493 1494 1494 1495 1496 1495 1495 1495 1495 1495 1495 1495 1494 1494 1493 1492 1491 1489 1488 1487 1486 1485 1484 1482 1480 1478 1476 1474 1473 1471 1470 1468 1466 1465 1462 1460 1458 1455 1453 1450 1446 1443 1441 1439 1436 1433 1430 1426 1423
1454 1456 1460 1460 1460 1463 1467 1466 1460 1455 1453 1453 1455 1456 1457 1457 1455 1455 1457 1459 1461 1462 1464 1466 1468 1471 1472 1473 1476 1479 1480 1482 1484 1485 1487 1489 1490 1491 1492 1492 1493 1493 1493 1493 1493 1492 1492 1491 1491 1491 1491 1491 1490 1489 1487 1485 1483 1482 1482 1480 1478 1476 1474 1472 1470 1468 1466 1465 1463 1461 1459 1457 1455 1453 1450 1448 1445 1442 1439 1436 1434 1431 1429 1425 1422 1418
1447 1447 1448 1449 1450 1452 1453 1452 1450 1449 1450 1451 1450 1450 1452 1454 1455 1456 1457 1458 1460 1462 1464 1466 1468 1470 1472 1473 1475 1477 1479 1482 1483 1484 1486 1487 1488 1489 1489 1489 1490 1490 1490 1491 1490 1489 1489 1488 1488 1488 1488 1488 1488 1487 1485 1483 1481 1479 1477 1476 1474 1472 1469 1467 1465 1463 1461 1460 1458 1456 1454 1452 1450 1448 1446 1443 1441 1437 1435 1432 1429 1427 1424 1421 1418 1414
1443 1444 1443 1444 1446 1448 1448 1448 1448 1448 1449 1449 1450 1451 1452 1453 1454 1456 1457 1458 1460 1461 1463 1465 1467 1468 1471 1473 1474 1476 1479 1480 1481 1483 1485 1485 1486 1487 1487 1487 1487 1488 1488 1488 1488 1487 1487 1486 1485 1485 1484 1484 1485 1484 1482 1480 1477 1475 1473 1471 1469 1467 1465 1462 1460 1458 1457 1455 1453 1451 1449 1446 1444 1442 1440 1439 1436 1433 1430 1427 1424 1421 1419 1416 1413 1410
1443 1444 1444 1444 1445 1447 1447 1446 1447 1448 1448 1449 1450 1451 1451 1453 1454 1456 1457 1458 1459 1460 1462 1464 1466 1468 1470 1472 1474 1476 1477 1478 1480 1481 1482 1483 1484 1484 1484 1485 1485 1485 1485 1485 1485 1484 1484 1483 1482 1481 1480 1480 1480 1479 1478 1476 1474 1472 1469 1467 1464 1462 1459 1457 1455 1453 1451 1449 1447 1446 1443 1441 1438 1436 1434 1433 1431 1428 1426 1423 1420 1417 1414 1411 1408 1405
1440 1442 1445 1445 1444 1445 1446 1447 1448 1448 1448 1449 1449 1450 1451 1452 1453 1454 1455 1457 1458 1460 1462 1464 1466 1467 1469 1471 1473 1474 1475 1477 1478 1479 1480 1481 1481 1481 1482 1482 1482 1483 1483 1482 1481 1481 1480 1479 1478 1477 1476 1475 1475 1474 1473 1472 1470 1468 1466 1463 1460 1457 1454 1452 1450 1447 1445 1443 1441 1439 1437 1435 1432 1430 1427 1426 1424 1422 1420 1418 1415 1412 1409 1407 1404 1401
1438 1440 1442 1443 1444 1446 1447 1447 1448 1449 1449 1449 1448 1448 1449 1450 1451 1452 1454 1456 1457 1458 1460 1462 1465 1466 1468 1470 1471 1472 1473 1475 1476 1476 1477 1478 1478 1479 1479 1479 1479 1479 1479 1478 1478 1477 1476 1475 1474 1473 1472 1471 1470 1470 1468 1467 1466 1464 1461 1458 1456 1452 1449 1446 1444 1442 1440 1438 1436 1434 1431 1429 1427 1424 1422 1419 1418 1416 1414 1412 1410 1407 1404 1403 1401 1397
1436 1438 1439 1441 1444 1443 1441 1441 1443 1444 1445 1445 1446 1446 1448 1449 1450 1451 1453 1454 1456 1458 1459 1461 1463 1465 1467 1468 1470 1471 1472 1473 1474 1475 1475 1476 1476 1476 1476 1475 1476 1475 1475 1475 1475 1474 1473 1472 1471 1469 1468 1467 1466 1464 1463 1461 1460 1459 1456 1454 1451 1447 1444 1441 1438 1437 1435 1433 1431 1429 1427 1424 1422 1420 1417 1415 1412 1410 1408 1407 1405 1403 1400 1397 1396 1394
1432 1433 1434 1437 1438 1437 1434 1435 1437 1439 1439 1441 1443 1445 1447 1448 1449 1450 1452 1453 1455 1457 1458 1460 1462 1464 1465 1467 1468 1469 1470 1471 1472 1473 1473 1474 1474 1473 1473 1473 1473 1473 1473 1472 1471 1470 1469 1468 1467 1465 1464 1462 1460 1459 1457 1456 1455 1453 1451 1449 1446 1443 1440 1437 1434 1432 1430 1428 1426 1424 1423 1420 1417 1415 1413 1411 1408 1406 1403 1401 1400 1399 1396 1394 1391 1389